When you browse on this site, cookies collect data to enhance your experience and personalize the content and advertising you see.
Visit our Privacy Policy to learn more. By continuing to use the site, you agree to this use of cookies and data.
  • In Hungary
  • List of Countries
  • For 7 days
  • Water Temperature
  • Weather Map
  • News
  • Weather Widgets
  • user-avatar
    Login

    Hourly Weather Ostroshno

    Today, 24 August, Saturday

    Time Temperature Precipitation Wind Pressure Humidity
    00:00 +14°C° 0 mm 2 mps 755 mmHg 91%
    01:00 +13°C° 0 mm 2 mps 755 mmHg 91%
    02:00 +13°C° 0 mm 2 mps 755 mmHg 92%
    03:00 +12°C° 0 mm 3 mps 755 mmHg 91%
    04:00 +12°C° 0 mm 3 mps 754 mmHg 91%
    05:00 +12°C° 0 mm 3 mps 754 mmHg 90%
    06:00 +14°C° 0 mm 3 mps 754 mmHg 84%
    07:00 +16°C° 0 mm 3 mps 754 mmHg 79%
    08:00 +18°C° 0 mm 4 mps 754 mmHg 73%
    09:00 +19°C° 0 mm 4 mps 754 mmHg 68%
    10:00 +21°C° 0 mm 4 mps 754 mmHg 63%
    11:00 +22°C° 0 mm 4 mps 754 mmHg 58%
    12:00 +22°C° 0 mm 4 mps 754 mmHg 59%
    13:00 +22°C° 0 mm 4 mps 754 mmHg 61%
    14:00 +22°C° 0 mm 3 mps 753 mmHg 62%
    15:00 +22°C° 0.1 mm 3 mps 753 mmHg 66%
    16:00 +22°C° 0.1 mm 3 mps 753 mmHg 71%
    17:00 +21°C° 0.1 mm 2 mps 753 mmHg 75%
    18:00 +20°C° 0.1 mm 2 mps 754 mmHg 81%
    19:00 +18°C° 0.1 mm 2 mps 754 mmHg 86%
    20:00 +18°C° 0.1 mm 1 mps 754 mmHg 91%
    21:00 +16°C° 0 mm 1 mps 754 mmHg 92%
    22:00 +15°C° 0 mm 1 mps 754 mmHg 92%
    23:00 +14°C° 0 mm 1 mps 754 mmHg 93%

    Tomorrow, 25 August, Sunday

    Time Temperature Precipitation Wind Pressure Humidity
    00:00 +14°C° 0 mm 1 mps 755 mmHg 94%
    01:00 +13°C° 0 mm 1 mps 755 mmHg 94%
    02:00 +13°C° 0 mm 1 mps 755 mmHg 95%
    03:00 +12°C° 0 mm 1 mps 756 mmHg 95%
    04:00 +12°C° 0 mm 1 mps 756 mmHg 95%
    05:00 +11°C° 0 mm 1 mps 756 mmHg 96%
    06:00 +12°C° 0 mm 1 mps 756 mmHg 91%
    07:00 +14°C° 0 mm 1 mps 756 mmHg 87%
    08:00 +15°C° 0 mm 2 mps 757 mmHg 82%
    09:00 +16°C° 0 mm 2 mps 757 mmHg 75%
    10:00 +18°C° 0 mm 2 mps 757 mmHg 67%
    11:00 +19°C° 0 mm 2 mps 757 mmHg 60%
    12:00 +21°C° 0 mm 1 mps 757 mmHg 58%
    13:00 +22°C° 0 mm 1 mps 757 mmHg 55%
    14:00 +22°C° 0 mm 1 mps 757 mmHg 53%
    15:00 +22°C° 0 mm 1 mps 757 mmHg 57%
    16:00 +22°C° 0 mm 1 mps 757 mmHg 61%
    17:00 +21°C° 0 mm 1 mps 757 mmHg 66%
    18:00 +19°C° 0 mm 1 mps 757 mmHg 71%
    19:00 +15°C° 0 mm 0 mps 757 mmHg 76%
    20:00 +13°C° 0 mm 0 mps 757 mmHg 82%
    21:00 +13°C° 0 mm 0 mps 757 mmHg 84%
    22:00 +12°C° 0 mm 0 mps 757 mmHg 86%
    23:00 +12°C° 0 mm 0 mps 757 mmHg 87%

    Day after tomorrow, 26 August, Monday

    Time Temperature Precipitation Wind Pressure Humidity
    00:00 +11°C° 0 mm 0 mps 757 mmHg 89%
    01:00 +11°C° 0 mm 0 mps 757 mmHg 90%
    02:00 +11°C° 0 mm 0 mps 757 mmHg 91%
    03:00 +11°C° 0 mm 1 mps 757 mmHg 92%
    04:00 +11°C° 0 mm 1 mps 757 mmHg 93%
    05:00 +11°C° 0 mm 1 mps 757 mmHg 93%
    06:00 +13°C° 0 mm 1 mps 757 mmHg 86%
    07:00 +15°C° 0 mm 1 mps 757 mmHg 79%
    08:00 +18°C° 0 mm 1 mps 757 mmHg 72%
    09:00 +20°C° 0 mm 1 mps 756 mmHg 67%
    10:00 +21°C° 0 mm 1 mps 756 mmHg 61%
    11:00 +23°C° 0 mm 1 mps 756 mmHg 55%
    12:00 +23°C° 0 mm 2 mps 756 mmHg 53%
    13:00 +24°C° 0 mm 2 mps 755 mmHg 52%
    14:00 +24°C° 0 mm 2 mps 755 mmHg 50%
    15:00 +24°C° 0 mm 2 mps 755 mmHg 56%
    16:00 +24°C° 0 mm 2 mps 754 mmHg 62%
    17:00 +24°C° 0 mm 1 mps 754 mmHg 68%
    18:00 +22°C° 0 mm 1 mps 754 mmHg 74%
    19:00 +20°C° 0 mm 1 mps 753 mmHg 81%
    20:00 +17°C° 0 mm 2 mps 753 mmHg 87%
    21:00 +17°C° 0 mm 2 mps 753 mmHg 88%
    22:00 +16°C° 0 mm 2 mps 753 mmHg 89%
    23:00 +16°C° 0 mm 2 mps 753 mmHg 90%

    27 August, Tuesday

    Time Temperature Precipitation Wind Pressure Humidity
    00:00 +16°C° 0 mm 2 mps 753 mmHg 92%
    01:00 +16°C° 0 mm 2 mps 752 mmHg 94%
    02:00 +15°C° 0 mm 2 mps 752 mmHg 96%
    03:00 +15°C° 0 mm 2 mps 752 mmHg 96%
    04:00 +15°C° 0 mm 2 mps 752 mmHg 96%
    05:00 +14°C° 0 mm 2 mps 752 mmHg 97%
    06:00 +15°C° 0 mm 2 mps 752 mmHg 92%
    07:00 +16°C° 0 mm 2 mps 752 mmHg 87%
    08:00 +17°C° 0 mm 2 mps 752 mmHg 83%
    09:00 +19°C° 0 mm 3 mps 752 mmHg 77%
    10:00 +20°C° 0 mm 3 mps 752 mmHg 71%
    11:00 +21°C° 0 mm 3 mps 752 mmHg 66%
    12:00 +22°C° 0 mm 3 mps 752 mmHg 61%
    13:00 +22°C° 0 mm 4 mps 752 mmHg 57%
    14:00 +23°C° 0 mm 4 mps 752 mmHg 52%
    15:00 +22°C° 0 mm 3 mps 752 mmHg 56%
    16:00 +21°C° 0 mm 3 mps 752 mmHg 59%
    17:00 +20°C° 0 mm 2 mps 752 mmHg 62%
    18:00 +18°C° 0 mm 2 mps 752 mmHg 69%
    19:00 +16°C° 0 mm 2 mps 752 mmHg 76%
    20:00 +15°C° 0 mm 1 mps 753 mmHg 82%
    21:00 +14°C° 0 mm 1 mps 753 mmHg 85%
    22:00 +13°C° 0 mm 1 mps 753 mmHg 87%
    23:00 +13°C° 0 mm 2 mps 754 mmHg 90%

    28 August, Wednesday

    Time Temperature Precipitation Wind Pressure Humidity
    00:00 +12°C° 0 mm 2 mps 754 mmHg 91%
    01:00 +10°C° 0 mm 2 mps 754 mmHg 91%
    02:00 +9°C° 0 mm 2 mps 754 mmHg 92%
    03:00 +10°C° 0 mm 1 mps 754 mmHg 93%
    04:00 +9°C° 0 mm 1 mps 755 mmHg 93%
    05:00 +9°C° 0 mm 1 mps 755 mmHg 94%
    06:00 +10°C° 0 mm 1 mps 755 mmHg 85%
    07:00 +10°C° 0 mm 2 mps 755 mmHg 76%
    08:00 +13°C° 0 mm 2 mps 755 mmHg 68%
    09:00 +14°C° 0 mm 2 mps 755 mmHg 60%
    10:00 +15°C° 0 mm 2 mps 755 mmHg 52%
    11:00 +16°C° 0 mm 2 mps 756 mmHg 45%
    12:00 +17°C° 0 mm 2 mps 755 mmHg 44%
    13:00 +17°C° 0 mm 2 mps 755 mmHg 43%
    14:00 +17°C° 0 mm 2 mps 755 mmHg 42%
    15:00 +17°C° 0 mm 2 mps 755 mmHg 47%
    16:00 +17°C° 0 mm 2 mps 755 mmHg 52%
    17:00 +16°C° 0 mm 2 mps 754 mmHg 56%
    18:00 +14°C° 0 mm 2 mps 754 mmHg 61%
    19:00 +13°C° 0 mm 1 mps 754 mmHg 67%
    20:00 +11°C° 0 mm 1 mps 754 mmHg 72%
    21:00 +10°C° 0 mm 1 mps 754 mmHg 75%
    22:00 +9°C° 0 mm 1 mps 755 mmHg 78%
    23:00 +8°C° 0 mm 1 mps 755 mmHg 81%

    29 August, Thursday

    Time Temperature Precipitation Wind Pressure Humidity
    00:00 +8°C° 0 mm 1 mps 755 mmHg 81%
    01:00 +7°C° 0 mm 1 mps 755 mmHg 82%
    02:00 +7°C° 0 mm 1 mps 755 mmHg 82%
    03:00 +7°C° 0 mm 1 mps 755 mmHg 83%
    04:00 +6°C° 0 mm 1 mps 755 mmHg 83%
    05:00 +6°C° 0 mm 1 mps 755 mmHg 83%
    06:00 +8°C° 0 mm 1 mps 755 mmHg 77%
    07:00 +10°C° 0 mm 1 mps 755 mmHg 70%
    08:00 +10°C° 0 mm 2 mps 755 mmHg 64%
    09:00 +13°C° 0 mm 2 mps 755 mmHg 58%
    10:00 +15°C° 0 mm 2 mps 755 mmHg 51%
    11:00 +16°C° 0 mm 2 mps 755 mmHg 45%
    12:00 +17°C° 0 mm 2 mps 755 mmHg 46%
    13:00 +18°C° 0 mm 2 mps 755 mmHg 47%
    14:00 +18°C° 0 mm 2 mps 754 mmHg 48%
    15:00 +18°C° 0 mm 2 mps 754 mmHg 53%
    16:00 +17°C° 0 mm 2 mps 754 mmHg 57%
    17:00 +17°C° 0 mm 2 mps 754 mmHg 62%
    18:00 +15°C° 0 mm 2 mps 754 mmHg 69%
    19:00 +13°C° 0 mm 2 mps 754 mmHg 76%
    20:00 +11°C° 0 mm 1 mps 754 mmHg 83%
    21:00 +10°C° 0 mm 1 mps 755 mmHg 84%
    22:00 +9°C° 0 mm 1 mps 755 mmHg 85%
    23:00 +8°C° 0 mm 1 mps 755 mmHg 86%
    Show more